Time_in_sec,Mx,My,Mz
1312468967.92311382,-0.59295601,0.45558748,-0.64867836
1312468967.97210360,-0.59669060,0.45125932,-0.64926934
1312468968.02311563,-0.59437162,0.45738384,-0.64674246
1312468968.07218838,-0.59621429,0.45201412,-0.64816368
1312468968.12017632,-0.59490502,0.45445490,-0.64905411
1312468968.17108822,-0.59454876,0.45495066,-0.64768255
1312468968.22018242,-0.59379888,0.45459598,-0.65129364
1312468968.27222824,-0.59404916,0.45148423,-0.64898181
1312468968.32022762,-0.59535015,0.45497948,-0.64949042
1312468968.37212849,-0.59389377,0.45353597,-0.64844650
1312468968.42023754,-0.59410805,0.45573720,-0.64942384
1312468968.47211146,-0.59519476,0.45109361,-0.64742005
1312468968.52022457,-0.59440935,0.45458823,-0.64997452
1312468968.57220221,-0.59430677,0.45315465,-0.64846760
1312468968.62381291,-0.59462243,0.45483625,-0.64890510
1312468968.67116809,-0.59346938,0.45352951,-0.64828628
1312468968.72311044,-0.59504080,0.45589480,-0.65110487
1312468968.77158809,-0.59437495,0.45262864,-0.64738393
1312468968.82315278,-0.59361756,0.45548594,-0.65047705
1312468968.87222624,-0.59537715,0.45318514,-0.65015566
1312468968.91223073,-0.59488666,0.45396218,-0.65108126
1312468968.97223663,-0.59377986,0.45559567,-0.64859092
1312468969.02310681,-0.59579217,0.45408958,-0.65005124
1312468969.07210088,-0.59503853,0.45381284,-0.64905703
1312468969.12309480,-0.59414101,0.45494735,-0.64779425
1312468969.17213511,-0.59452975,0.45306885,-0.65213740
1312468969.22422504,-0.59446323,0.45511270,-0.65079439
1312468969.27202129,-0.59539050,0.45097765,-0.64837879
1312468969.32421088,-0.59414119,0.45677185,-0.64984000
1312468969.37223244,-0.59622568,0.45240191,-0.64830273
1312468969.42309499,-0.59341848,0.45544779,-0.64721411
1312468969.47192001,-0.59616899,0.45125917,-0.64978081
1312468969.52310991,-0.59472477,0.45547360,-0.64823860
1312468969.57222271,-0.59440398,0.45314834,-0.64779592
1312468969.62310481,-0.59448409,0.45357424,-0.65132576
1312468969.67119718,-0.59431636,0.45305291,-0.65090567
1312468969.72323442,-0.59363627,0.45471832,-0.65087873
1312468969.77119946,-0.59550661,0.45099989,-0.65028214
1312468969.82065916,-0.59581494,0.45486519,-0.65032935
1312468969.87178421,-0.59432960,0.45290196,-0.64887345
1312468969.92330837,-0.59453660,0.45523036,-0.64971584
1312468969.97119832,-0.59538072,0.45416424,-0.64555770
1312468970.02328062,-0.59511018,0.45241266,-0.65040523
1312468970.07209277,-0.59465343,0.45173237,-0.64752883
1312468970.12334085,-0.59573102,0.45369226,-0.64909643
1312468970.17121220,-0.59485316,0.45418787,-0.64823633
1312468970.22310710,-0.59380168,0.45418596,-0.64912331
1312468970.27222395,-0.59449601,0.45249835,-0.64711910
1312468970.32414651,-0.59535432,0.45343786,-0.64974988
1312468970.37164927,-0.59497255,0.45151150,-0.65052587
1312468970.42331195,-0.59445047,0.45688480,-0.64809787
1312468970.47120786,-0.59515214,0.45301351,-0.64648390
1312468970.52413654,-0.59348172,0.45610258,-0.64817101
1312468970.57119823,-0.59618759,0.45254809,-0.64992714
1312468970.62414050,-0.59456468,0.45356476,-0.65038216
1312468970.67119694,-0.59536964,0.45251608,-0.64784735
1312468970.72412372,-0.59570605,0.45471579,-0.64856088
1312468970.77120852,-0.59580958,0.45342529,-0.64815080
1312468970.82412505,-0.59540105,0.45306119,-0.65056252
1312468970.87222457,-0.59448063,0.45444840,-0.64889395
1312468970.91156316,-0.59425819,0.45509836,-0.64969867
1312468970.97226119,-0.59434915,0.45534793,-0.64889306
1312468971.02313662,-0.59363490,0.45584992,-0.64844894
1312468971.07224298,-0.59537065,0.45367309,-0.64772075
1312468971.12314129,-0.59516990,0.45599818,-0.64867485
1312468971.17121363,-0.59578913,0.45267510,-0.65017581
1312468971.22316384,-0.59400040,0.45754105,-0.64970213
1312468971.27121091,-0.59577435,0.45213318,-0.64773256
1312468971.32020473,-0.59470958,0.45433879,-0.65039647
1312468971.37213182,-0.59363186,0.45443544,-0.64857352
1312468971.42018819,-0.59528589,0.45316768,-0.64866018
1312468971.47212911,-0.59459251,0.45213124,-0.64874744
1312468971.52010870,-0.59614533,0.45320761,-0.65141970
1312468971.57208824,-0.59441030,0.45083591,-0.64818519
1312468971.62018442,-0.59380299,0.45511091,-0.65129775
1312468971.67119217,-0.59523845,0.45318353,-0.65014762
1312468971.72311807,-0.59486079,0.45280039,-0.65079999
1312468971.77121449,-0.59417844,0.45238382,-0.64872527
1312468971.82011914,-0.59462029,0.45560706,-0.64877534
1312468971.87221265,-0.59427387,0.45291623,-0.65022486
1312468971.92310452,-0.59471774,0.45639694,-0.65027708
1312468971.97115803,-0.59468967,0.45315319,-0.64794809
1312468972.02309442,-0.59505957,0.45409888,-0.65163416
1312468972.07114792,-0.59524238,0.45187396,-0.64810604
1312468972.12308931,-0.59447050,0.45498556,-0.65092927
1312468972.17222261,-0.59341347,0.45171928,-0.64759201
1312468972.22412419,-0.59489691,0.45627779,-0.65096390
1312468972.27123594,-0.59704161,0.45114815,-0.65050811
1312468972.32419634,-0.59443814,0.45431173,-0.64821309
1312468972.37224579,-0.59427702,0.45124587,-0.65048337
1312468972.42368913,-0.59469920,0.45407975,-0.65025848
1312468972.47225332,-0.59541434,0.45085368,-0.64878559
1312468972.52311063,-0.59423774,0.45434818,-0.65172368
1312468972.57115889,-0.59418464,0.45315620,-0.64873147
1312468972.62319994,-0.59338796,0.45420647,-0.65140224
1312468972.67215204,-0.59494555,0.45227754,-0.64998823
1312468972.72378111,-0.59460193,0.45614260,-0.65067476
1312468972.77228594,-0.59592348,0.45136559,-0.64800638
1312468972.82325339,-0.59504813,0.45473939,-0.65136743
1312468972.87221217,-0.59564096,0.45562801,-0.64964771
1312468972.91210198,-0.59529239,0.45370799,-0.65096748
1312468972.97208118,-0.59497756,0.45524001,-0.65014797
1312468973.02324986,-0.59492993,0.45445967,-0.64946198
1312468973.07220626,-0.59507781,0.45173883,-0.64768904
1312468973.12311387,-0.59529746,0.45537996,-0.65084499
1312468973.17221594,-0.59595162,0.45358106,-0.65046304
1312468973.22318888,-0.59417355,0.45253634,-0.65089345
1312468973.27221251,-0.59437627,0.45252532,-0.64968604
1312468973.32312131,-0.59501010,0.45385727,-0.65311950
1312468973.37211156,-0.59503162,0.45267963,-0.65135086
1312468973.42312813,-0.59458339,0.45279711,-0.65078384
1312468973.47223330,-0.59655005,0.45179644,-0.65143257
1312468973.52312350,-0.59623557,0.45309636,-0.65291417
1312468973.57187033,-0.59424174,0.45201033,-0.64980978
1312468973.62310505,-0.59571409,0.45594898,-0.65534371
1312468973.67119551,-0.59376395,0.45307180,-0.65317649
1312468973.72310328,-0.59374547,0.45463565,-0.65494823
1312468973.77221417,-0.59471613,0.45282257,-0.65295911
1312468973.82038999,-0.59634411,0.45450613,-0.65225387
1312468973.87218428,-0.59390366,0.45320216,-0.65318561
1312468973.92315435,-0.59414268,0.45358366,-0.65252513
1312468973.97120094,-0.59439832,0.45294008,-0.65226418
1312468974.02326703,-0.59585673,0.45464104,-0.65331018
1312468974.07222199,-0.59495437,0.45284328,-0.65459865
1312468974.12027144,-0.59456927,0.45567212,-0.65473312
1312468974.17226624,-0.59477007,0.45231876,-0.65390664
1312468974.22022486,-0.59494907,0.45631272,-0.65408278
1312468974.27223015,-0.59523022,0.45215365,-0.65013933
1312468974.32023168,-0.59582388,0.45337433,-0.65519512
1312468974.37220502,-0.59477288,0.45293704,-0.65160871
1312468974.42311263,-0.59472364,0.45349163,-0.65526742
1312468974.47121692,-0.59494519,0.45065638,-0.65471703
1312468974.52020097,-0.59551299,0.45462507,-0.65220636
1312468974.57220030,-0.59618062,0.45244315,-0.65209329
1312468974.62016654,-0.59358191,0.45360094,-0.65465999
1312468974.67220521,-0.59393555,0.45331186,-0.65142733
1312468974.72370434,-0.59597600,0.45402125,-0.65534437
1312468974.77223301,-0.59526265,0.45179921,-0.65298319
1312468974.82320166,-0.59439635,0.45553538,-0.65418017
1312468974.87215757,-0.59344733,0.45514256,-0.65452832
1312468974.92350030,-0.59510750,0.45464718,-0.65462124
1312468974.97212815,-0.59454334,0.45062926,-0.65266156
1312468975.02311039,-0.59480548,0.45543534,-0.65637058
1312468975.07221699,-0.59350318,0.45204344,-0.65355992
1312468975.12312460,-0.59426111,0.45465961,-0.65660393
1312468975.17207837,-0.59540576,0.45311198,-0.65516883
1312468975.22319841,-0.59677917,0.45351130,-0.65498084
1312468975.27209783,-0.59489506,0.45190719,-0.65147257
1312468975.32328105,-0.59572041,0.45363653,-0.65573293
1312468975.37174916,-0.59372586,0.45321798,-0.65480089
1312468975.42344546,-0.59350228,0.45476747,-0.65547693
1312468975.47210646,-0.59611589,0.45106676,-0.65573651
1312468975.52338719,-0.59408581,0.45552576,-0.65362018
1312468975.57222366,-0.59584957,0.45271164,-0.65343064
1312468975.62328863,-0.59596485,0.45442966,-0.65737867
1312468975.67173576,-0.59569556,0.45363176,-0.65532506
1312468975.72386432,-0.59469873,0.45348686,-0.65485954
1312468975.77202439,-0.59482819,0.45232987,-0.65485835
1312468975.82422805,-0.59525383,0.45326132,-0.65719301
1312468975.87219548,-0.59348887,0.45309392,-0.65546346
1312468975.92361808,-0.59420955,0.45416051,-0.65808725
1312468975.97128034,-0.59626389,0.45222700,-0.65575391
1312468976.02325082,-0.59564394,0.45416096,-0.65668064
1312468976.07221293,-0.59514296,0.45079786,-0.65567786
1312468976.12311816,-0.59585416,0.45481899,-0.65778154
1312468976.17212963,-0.59401172,0.45504731,-0.65699875
1312468976.22324085,-0.59387404,0.45517442,-0.65699172
1312468976.27210331,-0.59516573,0.45260173,-0.65582830
1312468976.32323194,-0.59571868,0.45314699,-0.65803194
1312468976.37222338,-0.59291255,0.45426506,-0.65719974
1312468976.42308497,-0.59521163,0.45289254,-0.65881324
1312468976.47221565,-0.59432429,0.45040506,-0.65589809
1312468976.52409697,-0.59359592,0.45481035,-0.65927559
1312468976.57218051,-0.59692860,0.45148337,-0.65768343
1312468976.62308145,-0.59533566,0.45520502,-0.65829617
1312468976.67208195,-0.59408951,0.45441955,-0.65835309
1312468976.72038388,-0.59532773,0.45291480,-0.66071665
1312468976.77223134,-0.59446627,0.45261738,-0.65795505
1312468976.82041812,-0.59478503,0.45468515,-0.65839565
1312468976.87209868,-0.59593272,0.45455202,-0.65683591
1312468976.92024875,-0.59410930,0.45275235,-0.65888351
1312468976.97220516,-0.59513074,0.45210582,-0.65758348
1312468977.02321267,-0.59643281,0.45470154,-0.65822077
1312468977.07222629,-0.59423536,0.45041296,-0.65670574
1312468977.12307286,-0.59581232,0.45216161,-0.66195828
1312468977.17214036,-0.59580779,0.45393530,-0.65939772
1312468977.22320271,-0.59498602,0.45418456,-0.65948719
1312468977.27211928,-0.59429860,0.45106778,-0.65766263
1312468977.32309079,-0.59435868,0.45339292,-0.65836102
1312468977.37221861,-0.59400147,0.45170340,-0.65724373
1312468977.42022181,-0.59324694,0.45517898,-0.65803891
1312468977.47220373,-0.59610182,0.45394173,-0.65968579
1312468977.52021313,-0.59332871,0.45324165,-0.65735167
1312468977.57221437,-0.59531713,0.45288780,-0.65827751
1312468977.62013602,-0.59396094,0.45388076,-0.65630966
1312468977.67214155,-0.59455407,0.45453730,-0.65689099
1312468977.72312927,-0.59520638,0.45327717,-0.65868038
1312468977.77211499,-0.59558105,0.45224583,-0.65815258
1312468977.82456636,-0.59527278,0.45328987,-0.65976804
1312468977.87174010,-0.59380907,0.45403007,-0.65833384
1312468977.92327857,-0.59565049,0.45264474,-0.65924329
1312468977.97163796,-0.59487516,0.45172113,-0.65797204
1312468978.02109432,-0.59486669,0.45480439,-0.65745306
1312468978.07119894,-0.59510481,0.45197234,-0.65717459
1312468978.12417173,-0.59448183,0.45249182,-0.65822589
1312468978.17222095,-0.59489894,0.45262545,-0.65825123
1312468978.22314048,-0.59565878,0.45264632,-0.65937924
1312468978.27163482,-0.59539026,0.45118096,-0.65515327
1312468978.32311463,-0.59471041,0.45467085,-0.65717202
1312468978.37111974,-0.59366208,0.45299858,-0.65831751
1312468978.42310476,-0.59555501,0.45416889,-0.65748829
1312468978.47119594,-0.59614384,0.45248601,-0.65601981
1312468978.52307153,-0.59625077,0.45523071,-0.65970421
1312468978.57127118,-0.59542447,0.45131606,-0.65569812
1312468978.62316132,-0.59574461,0.45225221,-0.65856850
1312468978.67138314,-0.59431487,0.45233130,-0.65550578
1312468978.72320127,-0.59598768,0.45417696,-0.65778446
1312468978.77161336,-0.59476936,0.45195794,-0.65620673
1312468978.82310677,-0.59467334,0.45391747,-0.65892512
1312468978.87172389,-0.59560561,0.45351094,-0.65613168
1312468978.91116285,-0.59501380,0.45275104,-0.65785247
1312468978.97188830,-0.59440500,0.45427662,-0.65674490
1312468979.02306533,-0.59522879,0.45634139,-0.65640211
1312468979.07240462,-0.59592432,0.45066938,-0.65490961
1312468979.12311363,-0.59467405,0.45530659,-0.65649742
1312468979.17286253,-0.59383881,0.45491061,-0.65644580
1312468979.22309446,-0.59472358,0.45451990,-0.65513974
1312468979.27220654,-0.59663230,0.45145151,-0.65509218
1312468979.32310343,-0.59423512,0.45555440,-0.65606737
1312468979.37227917,-0.59454066,0.45286378,-0.65687752
1312468979.42337847,-0.59485298,0.45439121,-0.65501088
1312468979.47240233,-0.59500217,0.45156705,-0.65553999
1312468979.52310944,-0.59283376,0.45373580,-0.65597200
1312468979.57212925,-0.59535813,0.45130333,-0.65461051
1312468979.62309051,-0.59420407,0.45477721,-0.65565330
1312468979.67221951,-0.59516460,0.45350128,-0.65569955
1312468979.72320437,-0.59410274,0.45426860,-0.65632087
1312468979.77203059,-0.59442627,0.45333105,-0.65267515
1312468979.82423925,-0.59474963,0.45259684,-0.65580404
1312468979.87110567,-0.59319907,0.45257413,-0.65530717
1312468979.92312431,-0.59478557,0.45424977,-0.65392220
1312468979.97119927,-0.59424955,0.45244732,-0.65441918
1312468980.02424741,-0.59531993,0.45350608,-0.65597957
1312468980.07121015,-0.59578043,0.45105237,-0.65476865
1312468980.12320232,-0.59413254,0.45412081,-0.65456051
1312468980.16309285,-0.59336680,0.45309547,-0.65572727
1312468980.22310781,-0.59431237,0.45539075,-0.65281957
1312468980.27107739,-0.59584945,0.45476821,-0.65317529
1312468980.32309175,-0.59358603,0.45411590,-0.65466410
1312468980.37199450,-0.59422874,0.45295748,-0.65401542
1312468980.42020845,-0.59600097,0.45299771,-0.65587991
1312468980.47212839,-0.59478670,0.45232192,-0.65417856
1312468980.52019858,-0.59469765,0.45438641,-0.65473086
1312468980.57210946,-0.59441811,0.45127290,-0.65279460
1312468980.62020445,-0.59558880,0.45168328,-0.65381408
1312468980.67208219,-0.59345460,0.45398712,-0.65479094
1312468980.72336745,-0.59480011,0.45399547,-0.65419203
1312468980.77212095,-0.59322029,0.45265687,-0.65110981
1312468980.82013893,-0.59573263,0.45335686,-0.65369964
1312468980.87214136,-0.59550917,0.45284978,-0.65463102
1312468980.91108108,-0.59482187,0.45361403,-0.65459681
1312468980.97208762,-0.59496570,0.45528761,-0.65448236
1312468981.02307558,-0.59520060,0.45412591,-0.65394539
1312468981.07212448,-0.59303516,0.45382810,-0.65246248
1312468981.12421179,-0.59481663,0.45502692,-0.65433627
1312468981.16423130,-0.59461164,0.45398429,-0.65336823
1312468981.22423220,-0.59511977,0.45333919,-0.65271562
1312468981.27223825,-0.59539515,0.45205671,-0.65285736
1312468981.32328701,-0.59472156,0.45426244,-0.65513766
1312468981.37199450,-0.59429067,0.45371562,-0.65267020
1312468981.42421436,-0.59446079,0.45323408,-0.65552109
1312468981.47222519,-0.59556079,0.45232058,-0.65327543
1312468981.52312899,-0.59274042,0.45448914,-0.65434676
1312468981.57213545,-0.59497076,0.45205024,-0.65269715
1312468981.62309480,-0.59482604,0.45310068,-0.65472859
1312468981.67221808,-0.59361482,0.45383939,-0.65290272
1312468981.72311163,-0.59396893,0.45514271,-0.65401685
1312468981.77212286,-0.59480846,0.45296878,-0.65445566
1312468981.82424426,-0.59406340,0.45246154,-0.65589851
1312468981.87221789,-0.59496474,0.45310232,-0.65473670
1312468981.92423558,-0.59438092,0.45360437,-0.65416467
1312468981.97221923,-0.59344101,0.45151737,-0.65260410
1312468982.02423429,-0.59340930,0.45323217,-0.65640807
1312468982.07156181,-0.59543347,0.45270675,-0.65340638
1312468982.12309909,-0.59460157,0.45349318,-0.65553129
1312468982.16320062,-0.59365630,0.45384735,-0.65358245
1312468982.22314143,-0.59434044,0.45372516,-0.65348589
1312468982.27224946,-0.59506923,0.45296887,-0.65419990
1312468982.32304668,-0.59420091,0.45541930,-0.65552253
1312468982.37211299,-0.59497410,0.45323265,-0.65487367
1312468982.42321229,-0.59275186,0.45282036,-0.65474117
1312468982.47223568,-0.59544313,0.45157671,-0.65597212
1312468982.52310920,-0.59448045,0.45465174,-0.65566844
1312468982.57225251,-0.59503913,0.45334870,-0.65365922
1312468982.62317467,-0.59363693,0.45322588,-0.65560853
1312468982.67221236,-0.59276539,0.45243734,-0.65500998
1312468982.72310090,-0.59436464,0.45234084,-0.65632153
1312468982.77112436,-0.59551644,0.45272264,-0.65476590
1312468982.82310557,-0.59494525,0.45453742,-0.65650737
1312468982.87222099,-0.59402186,0.45348188,-0.65509105
1312468982.91108251,-0.59258020,0.45463687,-0.65623498
1312468982.97211289,-0.59428161,0.45438150,-0.65470660
1312468983.02309012,-0.59370530,0.45452434,-0.65657055
1312468983.07112694,-0.59422988,0.45205793,-0.65414417
1312468983.12058377,-0.59502000,0.45352346,-0.65785867
1312468983.16321826,-0.59380877,0.45426217,-0.65603274
1312468983.22022343,-0.59377456,0.45412707,-0.65548790
1312468983.27196026,-0.59575152,0.45441371,-0.65614700
1312468983.32414627,-0.59347844,0.45489144,-0.65507007
1312468983.37209630,-0.59416991,0.45361385,-0.65523612
1312468983.42311907,-0.59545362,0.45468855,-0.65802819
1312468983.47212958,-0.59486860,0.45323738,-0.65540940
1312468983.52020431,-0.59376729,0.45425421,-0.65535301
1312468983.57110381,-0.59418964,0.45297495,-0.65563881
1312468983.62014723,-0.59242147,0.45550621,-0.65352315
1312468983.67207885,-0.59248275,0.45384696,-0.65473330
1312468983.72414541,-0.59468555,0.45363781,-0.65689182
1312468983.77240992,-0.59431881,0.45102176,-0.65346420
1312468983.82013965,-0.59384584,0.45295894,-0.65453500
1312468983.87213469,-0.59356016,0.45295411,-0.65438288
1312468983.92311120,-0.59498656,0.45272088,-0.65514147
1312468983.97260284,-0.59331375,0.45087525,-0.65286273
1312468984.02335048,-0.59493798,0.45466459,-0.65637249
1312468984.07291913,-0.59552968,0.45257169,-0.65273368
1312468984.12348080,-0.59369361,0.45436862,-0.65413046
1312468984.17291546,-0.59398860,0.45553207,-0.65429187
1312468984.22378349,-0.59493905,0.45479330,-0.65637350
1312468984.27291131,-0.59527719,0.45154491,-0.65325302
1312468984.32319856,-0.59318268,0.45439544,-0.65708101
1312468984.37210727,-0.59554136,0.45272741,-0.65517378
1312468984.42354512,-0.59317833,0.45308432,-0.65490347
1312468984.47211170,-0.59456217,0.45271441,-0.65498126
1312468984.52317929,-0.59508604,0.45376825,-0.65664524
1312468984.57216716,-0.59307152,0.45319238,-0.65313709
1312468984.62345481,-0.59405816,0.45387444,-0.65563798
1312468984.67216158,-0.59374130,0.45514899,-0.65481639
1312468984.72332406,-0.59351683,0.45451319,-0.65574676
1312468984.77221775,-0.59276849,0.45282355,-0.65501308
1312468984.82355857,-0.59377557,0.45425579,-0.65548897
1312468984.87214971,-0.59581250,0.45298654,-0.65505606
1312468984.91221070,-0.59538835,0.45377627,-0.65706927
1312468984.97207975,-0.59514278,0.45491099,-0.65516710
1312468985.02345324,-0.59376299,0.45682412,-0.65496582
1312468985.07273293,-0.59329176,0.45434153,-0.65207493
1312468985.12422371,-0.59420621,0.45297810,-0.65591073
1312468985.17264962,-0.59454352,0.45245376,-0.65470725
1312468985.22319913,-0.59350240,0.45271090,-0.65573227
1312468985.27210927,-0.59533501,0.45178813,-0.65190363
1312468985.32337332,-0.59295458,0.45383760,-0.65340608
1312468985.37213135,-0.59358710,0.45424461,-0.65466511
1312468985.42310429,-0.59375060,0.45527932,-0.65495342
1312468985.47215199,-0.59496558,0.45140657,-0.65269202
1312468985.52309585,-0.59397650,0.45375520,-0.65658051
1312468985.57221246,-0.59359646,0.45334667,-0.65492982
1312468985.62309575,-0.59268135,0.45332098,-0.65352172
1312468985.67162800,-0.59450203,0.45244581,-0.65402746
1312468985.72328472,-0.59417820,0.45361543,-0.65537208
1312468985.77120543,-0.59548330,0.45168799,-0.65434980
1312468985.82319427,-0.59333348,0.45514569,-0.65492809
1312468985.87211728,-0.59421319,0.45308304,-0.65374458
1312468985.92423820,-0.59405297,0.45425907,-0.65550512
1312468985.97212219,-0.59415823,0.45345813,-0.65279597
1312468986.02324605,-0.59407133,0.45475176,-0.65347803
1312468986.07113862,-0.59505659,0.45165613,-0.65188640
1312468986.12415314,-0.59299296,0.45345935,-0.65408278
1312468986.17213821,-0.59355181,0.45398080,-0.65411925
1312468986.22025132,-0.59537673,0.45259228,-0.65475678
1312468986.27167416,-0.59311277,0.45240411,-0.65164346
1312468986.32020998,-0.59280866,0.45190653,-0.65351844
1312468986.37218857,-0.59359306,0.45422083,-0.65249795
1312468986.42041731,-0.59371966,0.45244557,-0.65479469
1312468986.47221160,-0.59686792,0.45167890,-0.65212750
1312468986.52017355,-0.59490871,0.45334867,-0.65378708
1312468986.57217073,-0.59503686,0.45229504,-0.65148371
1312468986.62310743,-0.59266651,0.45380735,-0.65095085
1312468986.67120743,-0.59434128,0.45305768,-0.65131354
